STARLINK-5322 (55303 NORAD) Tracking and Keplerian Element Data

This shows tracking and keplerian element data for the satellite.

Feedback or suggestion? Click here.




ElementValue
Catalog55303
NameSTARLINK-5322
Epoch Orbit1705
Epoch Day127.05874169
Epoch Year2023
RAAN140.494
Inclination69.9981
Eccentricity0.0003423
Argument of Perigee268.0343
Mean Anonmoly92.0424
Mean Motion14.98333559
Decay Rate3.2E-07
L11 55303U 23010AL 23127.05874169 .00000032 00000+0 10459-4 0 9994
L22 55303 69.9981 140.4940 0003423 268.0343 92.0424 14.98333559 17054



Live tracking and technical data element details for STARLINK-5322 (NORAD 55303). STARLINK-5322 can be tracked NOW for your location showing map with azimuth and elevation plus other details from your city location.







IsCatalogInMostPopularTable: catalog: 55303, numindb: 1
Update: records affected: 1



GetName: 55303 STARLINK-5322

Hit Count: updated at: Mon, 05 Jun 2023 19:55:37 GMT